Tracy, MN

12:35 PM CST on December 14, 2019 (GMT -0600)
Tracy

Weather History for KTKC - November, 2019

Change the Weather History Date:

Sunday, November 17, 2019

  Actual Average (WUND) Record (WUND)
Temperature  
Mean Temperature 37 °F -  
Max Temperature 41 °F - - (-1)
Min Temperature 32 °F - - (-1)
Degree Days  
Heating Degree Days 28    
Moisture  
Dew Point 33 °F    
Average Humidity 90    
Maximum Humidity 100    
Minimum Humidity 81    
Precipitation  
Precipitation 0.00 in - - ()
Sea Level Pressure  
Sea Level Pressure 29.92 in    
Wind  
Wind Speed 7 mph (NW)    
Max Wind Speed 13 mph    
Max Gust Speed 18 mph    
Visibility 10 miles    
Events Rain    
Averages and records for this station are not official NWS values.
T = Trace of Precipitation, MM = Missing Value Source: NWS Daily Summary

Daily Weather History Graph

Daily Weather History Graph

Search for Another Location

Airport or City:

Astronomy

Nov. 17, 2019 Rise Set
Actual Time 7:20 AM CST 4:53 PM CST
Civil Twilight 6:48 AM CST 5:25 PM CST
Nautical Twilight 6:13 AM CST 6:00 PM CST
Astronomical Twilight 5:39 AM CST 6:34 PM CST
Moon 9:28 PM CST (11/17) 12:10 PM CST (11/17)
Length of Visible Light 10h 36m
Length of Day
9h 33m
Waning Gibbous, 73% of the Moon is Illuminated
Nov 17
Waning Gibbous
Nov 19
Last Quarter
Nov 26
New
Dec 4
First Quarter
Dec 11
Full

Hourly Weather History & Observations

Time (CST) Temp. Windchill Dew Point Humidity Pressure Visibility Wind Dir Wind Speed Gust Speed Precip Events Conditions
12:59 AM 41.0 °F 35.8 °F 39.2 °F 93% 29.95 in 10.0 mi WNW 8.1 mph - N/A Rain Light Rain
1:59 AM 41.0 °F 39.0 °F 37.4 °F 87% 29.94 in 10.0 mi WNW 3.5 mph - N/A   Overcast
3:59 AM 41.0 °F 35.2 °F 35.6 °F 81% 29.94 in 10.0 mi NW 9.2 mph - N/A   Mostly Cloudy
4:59 AM 39.2 °F 33.6 °F 35.6 °F 87% 29.95 in 10.0 mi NNW 8.1 mph - N/A   Overcast
5:59 AM 37.4 °F - 35.6 °F 93% 29.94 in 7.0 mi Calm Calm - N/A   Drizzle
6:59 AM 37.4 °F 31.4 °F 35.6 °F 93% 29.95 in 10.0 mi NNW 8.1 mph - N/A   Drizzle
7:59 AM 37.4 °F 29.8 °F 35.6 °F 93% 29.95 in 10.0 mi NW 11.5 mph - N/A   Overcast
8:59 AM 37.4 °F 30.3 °F 33.8 °F 87% 29.96 in 10.0 mi NNW 10.4 mph - N/A   Overcast
9:59 AM 35.6 °F 27.1 °F 32.0 °F 87% 29.97 in 10.0 mi NNW 12.7 mph 18.4 mph N/A   Overcast
10:59 AM 35.6 °F 27.1 °F 32.0 °F 87% 29.96 in 10.0 mi NNW 12.7 mph - N/A   Overcast
11:59 AM 35.6 °F 28.0 °F 30.2 °F 81% 29.96 in 10.0 mi NNW 10.4 mph - N/A   Overcast
12:59 PM 35.6 °F 28.0 °F 32.0 °F 87% 29.94 in 10.0 mi NW 10.4 mph - N/A   Overcast
1:59 PM 33.8 °F 25.8 °F 32.0 °F 93% 29.94 in 10.0 mi NW 10.4 mph - N/A   Overcast
2:59 PM 33.8 °F 26.4 °F 32.0 °F 93% 29.91 in 10.0 mi NW 9.2 mph - N/A   Overcast
3:59 PM 35.6 °F 29.9 °F 32.0 °F 87% 29.92 in 10.0 mi NW 6.9 mph - N/A   Overcast
4:59 PM 35.6 °F - 32.0 °F 87% 29.91 in 10.0 mi Calm Calm - N/A   Overcast
5:59 PM 33.8 °F - 32.0 °F 93% 29.90 in 10.0 mi Calm Calm - N/A   Overcast
6:59 PM 33.8 °F - 32.0 °F 93% 29.89 in 10.0 mi Calm Calm - N/A   Overcast
7:59 PM 33.8 °F - 32.0 °F 93% 29.88 in 10.0 mi Calm Calm - N/A   Overcast
8:59 PM 35.6 °F - 32.0 °F 87% 29.87 in 10.0 mi Calm Calm - N/A   Overcast
9:59 PM 35.6 °F - 32.0 °F 87% 29.85 in 10.0 mi Calm Calm - N/A   Overcast
10:59 PM 33.8 °F - 32.0 °F 93% 29.82 in 10.0 mi Calm Calm - N/A   Scattered Clouds
11:59 PM 32.0 °F - 32.0 °F 100% 29.80 in 10.0 mi Calm Calm - N/A   Clear